sat.trackr.live / text

‹ back to catalog

STARLINK-35327

NORAD 66439 · 2025-259T

PAYLOAD ACTIVE UNKNOWN

§ Identity

Operator
Country
US
Launch date
2025-11-11
Launch site
AFETR
Launch vehicle
Mass (kg)
RCS (m²)

Purposes: comms

External: N2YO · Heavens-Above · Gunter

§ Orbital elements

Epoch: 2026-05-25T04:15:32.869728Z

Period
94.27 min
Inclination
42.9989°
Eccentricity
0.0001337
Mean motion
15.27589078 rev/d
Perigee alt
482.1 km
Apogee alt
483.9 km
Semi-major
6,861.2 km
B*
5.0244e-4
RAAN
201.9880°
Arg perigee
278.7647°
Mean anomaly
81.3053°
Rev number
3,119

§ Raw data

STARLINK-353271 66439U 25259T   26145.17746377  .00013593  00000+0  50244-3 0  99992 66439  42.9989 201.9880 0001337 278.7647  81.3053 15.27589078 31190

JSON: /api/v1/satellites/66439 · /tle

For live sub-satellite position, see the globe view (requires WebGL).

§ Visibility from observer

Set your observer location to see the next 7 days of passes ≥ 10°. The values pass through the URL so the page stays shareable.

No JS? Fill the form by hand. The geolocation button needs JavaScript.